{"data":{"norad_id":68712,"epoch":"2026-05-25T00:29:45.595968Z","epoch_age_seconds":74002,"freshness":"FRESH","line1":"1 68712U 26081P   26145.02066662  .00036609  00000+0  66242-3 0  9993","line2":"2 68712  53.1603  39.9600 0001123 109.7510 250.3620 15.49342356  6423","mean_motion":15.49342356,"eccentricity":0.0001123,"inclination_deg":53.1603,"raan_deg":39.96,"arg_perigee_deg":109.751,"mean_anomaly_deg":250.362,"bstar":0.00066242,"rev_number":642,"period_min":92.942660117917,"perigee_km":417.88544888801,"apogee_km":419.41200696251,"semimajor_km":6796.7857279253,"source":"CELESTRAK","updated_at":"2026-05-25T13:38:22.000452Z"}}